(455) Bruchsalia
ephemeris date magn radius delta ra dec elong phase
Opposition13 Jul 202611.22.094 AU1.093 AU19h45m-34°59'166.4°6.6°
Today28 Jul 202611.32.056 AU1.078 AU19h31m-37°05'158.2°10.6°
(455) Bruchsalia - 2026-07-28
astro.vanbuitenen.nl


 
-1 year
-1 month
-1 day
Now
+1 day
+1 month
+1 year

The interactive orbit chart above shows the body's path through the solar system and its position at the given date. Green and blue lines are shown perpendicular to the ecliptic plane: Green if the path is above the ecliptic plane, blue if it is below. (Left-click and drag to rotate the view; Right-click and drag to move the view; Use scroll wheel to zoom in our out.)

The orbital elements of Bruchsalia are:

            e (Eccentricity)                : 0.2943201
            a (Semimajor axis)              : 2.6564184
            i (Inclination)                 : 12.01664
            Ω (Longitude of ascending node) : 76.06977
            ω (Argument of perihelion)      : 273.34337
            M (Mean anomaly)                : 319.82968
            Epoch                           : 2026 Jun 09

            L (Longitude of perihelion)     : -10.51213
            B (Latitude of perihelion)      : -11.99588
            P (Orbital period in years)     : 4.33            
        

The light curve chart below shows the estimated development of the minor planet's magnitude.


The all-sky chart below shows the path of the minor planet over the same period as the light curve. The current position is marked yellow.





The following chart shows the path of the minor planet in the next few days. The field of view is optimized for (~10x50) binoculars and finderscopes.




Ephemerides:
Date       Time       RA (2000)    DEC (2000)    delta   radius  elong  phase   PA    magn
2026-07-28 00:00 UT   19 31 11.1   -37 05 58     1.078    2.056  158.2   10.6    38   11.3 
2026-07-28 10:02 UT   19 30 47.2   -37 08 51     1.079    2.055  157.8   10.8    39   11.3 
2026-07-29 00:00 UT   19 30 14.2   -37 12 48     1.079    2.053  157.3   11.0    40   11.4 
2026-07-30 00:00 UT   19 29 18.1   -37 19 22     1.080    2.051  156.4   11.5    42   11.4 
2026-07-31 00:00 UT   19 28 23.2   -37 25 39     1.081    2.048  155.4   11.9    44   11.4 
2026-08-01 00:00 UT   19 27 29.3   -37 31 39     1.082    2.046  154.5   12.3    46   11.4 
2026-08-02 00:00 UT   19 26 36.7   -37 37 22     1.084    2.043  153.5   12.8    47   11.4 
2026-08-03 00:00 UT   19 25 45.4   -37 42 49     1.086    2.041  152.6   13.2    49   11.4 
2026-08-04 00:00 UT   19 24 55.5   -37 47 59     1.088    2.038  151.6   13.7    50   11.5 
2026-08-05 00:00 UT   19 24 07.2   -37 52 52     1.090    2.036  150.6   14.1    52   11.5 
2026-08-06 00:00 UT   19 23 20.4   -37 57 28     1.092    2.033  149.7   14.6    53   11.5 
2026-08-07 00:00 UT   19 22 35.4   -38 01 47     1.095    2.031  148.7   15.0    54   11.5 
2026-08-08 00:00 UT   19 21 52.2   -38 05 50     1.097    2.028  147.7   15.5    55   11.5 
2026-08-09 00:00 UT   19 21 10.8   -38 09 36     1.100    2.026  146.7   15.9    56   11.5 
2026-08-10 00:00 UT   19 20 31.4   -38 13 05     1.103    2.024  145.8   16.4    57   11.6 
2026-08-11 00:00 UT   19 19 54.1   -38 16 18     1.107    2.021  144.8   16.8    58   11.6 
2026-08-12 00:00 UT   19 19 18.8   -38 19 15     1.110    2.019  143.8   17.2    59   11.6 
2026-08-13 00:00 UT   19 18 45.8   -38 21 55     1.114    2.016  142.9   17.7    60   11.6 
2026-08-14 00:00 UT   19 18 15.0   -38 24 20     1.117    2.014  141.9   18.1    61   11.6 
2026-08-15 00:00 UT   19 17 46.5   -38 26 30     1.121    2.012  140.9   18.5    61   11.7 
2026-08-16 00:00 UT   19 17 20.4   -38 28 23     1.125    2.009  140.0   18.9    62   11.7 
2026-08-17 00:00 UT   19 16 56.7   -38 30 02     1.130    2.007  139.0   19.3    63   11.7 
2026-08-18 00:00 UT   19 16 35.4   -38 31 26     1.134    2.005  138.1   19.7    63   11.7 
2026-08-19 00:00 UT   19 16 16.7   -38 32 36     1.139    2.003  137.1   20.1    64   11.7 
2026-08-20 00:00 UT   19 16 00.5   -38 33 31     1.143    2.000  136.2   20.5    65   11.8 
2026-08-21 00:00 UT   19 15 46.9   -38 34 12     1.148    1.998  135.3   20.9    65   11.8 
2026-08-22 00:00 UT   19 15 35.8   -38 34 40     1.153    1.996  134.4   21.2    66   11.8 
2026-08-23 00:00 UT   19 15 27.3   -38 34 54     1.158    1.994  133.4   21.6    66   11.8 
2026-08-24 00:00 UT   19 15 21.4   -38 34 55     1.163    1.992  132.5   22.0    67   11.8 
2026-08-25 00:00 UT   19 15 18.2   -38 34 43     1.169    1.989  131.6   22.3    67   11.8 
2026-08-26 00:00 UT   19 15 17.6   -38 34 19     1.174    1.987  130.7   22.7    68   11.9 
2026-08-27 00:00 UT   19 15 19.6   -38 33 43     1.180    1.985  129.9   23.0    68   11.9 


    Terminology:
            
    delta:  distance between minor planet and earth in AU
    radius: distance between minor planet and sun in AU
    magn:   magnitude (brightness) estimate    
    ra:     right ascension in hours (24h = 360deg)
    dec:    declination in degrees
    elong:  elongation in degrees (angle sun-earth-minor planet)    
    phase:  phase angle in degrees (angle sun-minor planet-earth)        
    AU:     Astronomical Unit (mean distance between earth and sun: 149597870.7 km
    

Orbital elements provided by the MPC (Minor Planet Center).
Calculations by a modified version of AAPlus, a C# implementation of the AA+ project by PJ Naughter from the algorithms presented in the book "Astronomical Algorithms" by Jean Meeus.
NGC2000 dso catalog and star labels from VizieR as provided by the Strasbourg astronomical Data Center.
Tycho2 catalog from the ESO archive.